Weather in Maromitsa

Russia / Kirov Oblast     59°51′59″N   48°00′41″E
temp.,
°C
wind,
m/s
gust,
m/s
humid.,
%
clouds,
%
prec.,
mm/h
press.,
hPa
HPBL,
m
6 march, sat
sat600:00−19wnw2310083 0.0 100723
03:00−20wnw2310094 0.1 100948
06:00−19wnw279889 0.1 1009214
09:00−17wnw259793 0.1 1010262
12:00−14w3590100 0.1 1010701
15:00−13w3588100 0.1 1010844
18:00−17w2296100 0.1 101022
21:00−19sw229895 0.1 101020
7 march, sun
sun700:00−20sw2310077 0.0 100925
03:00−21ssw2310078 0.1 100945
06:00−22s3610067 0.0 100894
09:00−17s369781 0.0 1006253
12:00−11s4793100 0.0 1004467
15:00−10sse4891100 0.1 1002609
18:00−11se41193100 0.0 1001563
21:00−12se51194100 0.1 1001531
8 march, mon
mon800:00−13ese41095100 0.4 998442
03:00−13ese41095100 0.9 997442
06:00−14e4995100 0.6 996453
09:00−13e4894100 1.0 995505
12:00−11ene4692100 0.3 996601
15:00−10ene4692100 0.6 997715
18:00−12ne4895100 0.3 998477
21:00−13nne4994100 0.5 1000431
9 march, tue
tue900:00−15nne389599 0.1 1001408
03:00−17n389699 0.1 1003347
06:00−18n3896100 0.1 1005395
09:00−18n3695100 0.1 1007386
12:00−16nnw3594100 0.1 1009445
15:00−15nnw4692100 0.1 1010594
18:00−19nnw3797100 0.1 1012242
21:00−24n259999 0.1 1014112
10 march, wed
wed1000:00−27n2310083 0.0 101530
03:00−29n239966 0.0 101630
06:00−31n239931 0.0 101740
09:00−27n249622 0.0 1018252
12:00−21n249372 0.0 1017475
15:00−18nnw248984 0.0 1016593
18:00−23nw229690 0.0 101720
21:00−26nw229845 0.0 101719